[[{"header":{"parameterUnit":"m.s-1","parameterCategory":1,"la1":30.2991,"la2":30.254,"lo1":-89.0895,"lo2":-89.0444,"dy":0.0017,"dx":0.0017,"nx":28,"ny":28,"refTime":"2024-12-16T03:00:00:Z","depth":0,"parameterNumber":2,"parameterNumberName":"U-component_of_WINDS"},"data":[0,0,0,0,0,0,0,0,0,0,0,0,0,0,0,0,0,0,0,0,0,0,0,0,0,0,0,0,0,0,0,0,0,0,0,0,0,0,0,0,0,0,0,0,0,0,0,0,0,0,0,0,0,0,0,0,0,0,-4.3308,-4.3308,0,-4.3291,-4.329,-4.329,-4.3174,-4.3171,-4.3168,-4.3166,-4.3148,-4.315,-4.3152,0,0,0,0,0,0,0,0,0,0,0,0,0,-4.3245,-4.3247,-4.3308,-4.3308,-4.3308,-4.3291,-4.329,-4.329,-4.3174,-4.3171,-4.3168,-4.3164,-4.3147,-4.315,-4.3152,0,0,0,0,0,0,0,0,0,0,0,0,0,-4.3255,-4.3247,-4.3308,-4.3248,-4.3243,-4.3291,-4.329,-4.329,-4.3175,-4.3171,-4.3167,-4.3163,-4.3146,-4.3149,-4.3153,-4.3257,0,0,-4.3162,-4.3164,0,0,0,0,0,0,0,0,-4.3254,-4.3257,-4.3257,-4.3252,-4.3246,-4.323,-4.3261,-4.3279,-4.3176,-4.3201,-4.3165,-4.3161,-4.3179,-4.3179,-4.3185,-4.3257,-4.3256,-4.3163,-4.3165,-4.3166,-4.3167,0,0,0,0,0,0,0,-4.3254,-4.3257,-4.3301,-4.3257,-4.3251,-4.3223,-4.322,-4.3264,-4.3214,-4.3198,-4.319,-4.3189,-4.3175,-4.3182,-4.3184,-4.3255,-4.3163,-4.3166,-4.3168,-4.3169,-4.3415,-4.3419,0,0,0,0,0,0,-4.3261,-4.3257,-4.3302,-4.3301,-4.324,-4.3228,-4.3224,-4.324,-4.3213,-4.3205,-4.3193,-4.3184,-4.3179,-4.318,-4.3183,-4.3304,-4.3166,-4.3169,-4.3171,-4.341,-4.3416,-4.3421,0,0,0,0,0,0,-4.326,-4.3266,-4.3303,-4.3277,-4.3279,-4.3233,-4.3252,-4.3241,-4.3248,-4.3209,-4.3199,-4.3209,-4.3175,-4.3178,-4.324,-4.3302,-4.3171,-4.3173,-4.3405,-4.3412,-4.3419,-4.3548,0,0,0,0,0,0,-4.3259,-4.3267,-4.3305,-4.3279,-4.3281,-4.336,-4.3256,-4.3244,-4.3254,-4.3242,-4.3222,-4.3214,-4.3172,-4.3236,-4.3243,-4.3304,-4.3176,-4.3399,-4.3408,-4.3416,-4.3538,-4.3559,-4.3576,0,0,0,0,0,-4.3257,-4.3342,-4.3307,-4.3313,-4.3328,-4.3364,-4.3365,-4.3315,-4.326,-4.3298,-4.3274,-4.3215,-4.3295,-4.3243,-4.3251,-4.3313,-4.3395,-4.3406,-4.3416,-4.353,-4.3555,-4.3576,0,0,0,0,0,0,-4.3375,-4.3337,-4.3298,-4.3377,-4.3375,-4.3344,-4.339,-4.3343,-4.3356,-4.3344,-4.3281,-4.3278,-4.335,-4.3338,-4.3281,-4.3415,-4.3335,-4.3347,-4.3419,-4.3443,-4.3461,-4.3462,-4.3179,0,0,0,0,0,-4.3411,-4.3442,-4.3407,-4.348,-4.3481,-4.3437,-4.345,-4.3412,-4.3407,-4.3406,-4.3385,-4.3383,-4.3407,-4.3425,-4.3445,-4.3537,-4.3532,-4.3584,-4.3603,-4.3619,-4.363,-4.3679,-4.3703,-4.3455,-4.3455,-4.3455,0,0,-4.3483,-4.3467,-4.349,-4.3504,-4.3497,-4.3532,-4.3436,-4.3477,-4.3503,-4.3412,-4.3469,-4.3455,-4.3448,-4.3527,-4.356,-4.3519,-4.3698,-4.3632,-4.3645,-4.3647,-4.3692,-4.3716,-4.3737,-4.3462,-4.3461,-4.346,0,0,-4.3633,-4.3624,-4.3684,-4.3681,-4.3673,-4.3644,-4.3659,-4.3637,-4.3624,-4.3681,-4.3614,-4.3645,-4.3688,-4.3687,-4.3692,-4.3848,-4.3794,-4.3857,-4.3955,-4.4004,-4.4023,-4.404,-4.4096,-4.4117,-4.3868,-4.3868,-4.3868,0,-4.3724,-4.3774,-4.3721,-4.3767,-4.3776,-4.3697,-4.3758,-4.3758,-4.3757,-4.3766,-4.372,-4.3775,-4.3765,-4.3843,-4.3881,-4.3888,-4.3904,-4.3857,-4.4025,-4.4042,-4.4057,-4.4109,-4.413,-4.3876,-4.3875,-4.3874,-4.3873,0,-4.3887,-4.3923,-4.3973,-4.3975,-4.399,-4.4044,-4.4,-4.4022,-4.3984,-4.3961,-4.4021,-4.4008,-4.4025,-4.4041,-4.4004,-4.4114,-4.4089,-4.4036,-4.3954,-4.4089,-4.4137,-4.4156,-4.3886,-4.3884,-4.3882,-4.388,0,0,-4.4106,-4.4082,-4.4101,-4.4103,-4.4091,-4.4118,-4.417,-4.4187,-4.4207,-4.4212,-4.4253,-4.4295,-4.4246,-4.4252,-4.4215,-4.4259,-4.4384,-4.4199,-4.4198,-4.4234,-4.4505,-4.4544,-4.4568,-4.435,-4.4353,-4.4356,-4.4506,0,-4.4249,-4.4335,-4.4291,-4.4382,-4.4416,-4.4345,-4.439,-4.4389,-4.4369,-4.4396,-4.4374,-4.4404,-4.4338,-4.4342,-4.4382,-4.436,-4.4437,-4.4349,-4.4388,-4.439,-4.439,-4.4593,-4.4634,-4.4775,-4.4524,-4.4527,-4.453,0,-4.4426,-4.444,-4.4535,-4.452,-4.4533,-4.4574,-4.4588,-4.4614,-4.4613,-4.4596,-4.4605,-4.4559,-4.461,-4.4532,-4.4602,-4.4543,-4.4557,-4.455,-4.4554,-4.4554,-4.4466,-4.4597,-4.4819,-4.484,-4.4559,-4.4556,-4.4554,0,-4.4576,-4.4618,-4.4681,-4.4685,-4.4669,-4.47,-4.4695,-4.4689,-4.4704,-4.4717,-4.4726,-4.4745,-4.4756,-4.4772,-4.4733,-4.468,-4.4809,-4.4727,-4.4796,-4.4798,-4.4824,-4.4822,-4.5049,-4.4837,-4.4837,-4.4836,-4.4836,0,-4.474,-4.48,-4.4748,-4.4786,-4.4854,-4.4805,-4.4873,-4.486,-4.4857,-4.4892,-4.4833,-4.4868,-4.4815,-4.4846,-4.4816,-4.4879,-4.4884,-4.4872,-4.4863,-4.4877,-4.4878,-4.4883,-4.4871,-4.4842,-4.4841,-4.484,-4.4839,0,-4.4916,-4.4883,-4.4947,-4.4929,-4.4926,-4.4976,-4.4961,-4.4996,-4.4975,-4.5021,-4.5029,-4.4996,-4.5029,-4.4993,-4.5023,-4.5003,-4.5088,-4.5065,-4.5088,-4.5081,-4.5152,-4.5145,-4.5388,-4.5418,-4.5189,-4.5191,-4.5193,0,-4.5021,-4.5066,-4.5054,-4.5074,-4.5073,-4.5106,-4.5121,-4.5077,-4.5096,-4.51,-4.5135,-4.5164,-4.5183,-4.524,-4.5218,-4.5242,-4.5219,-4.5303,-4.5221,-4.5234,-4.5219,-4.5216,-4.522,-4.5318,-4.5321,-4.5323,-4.5325,0,-4.521,-4.5193,-4.5218,-4.5238,-4.5259,-4.5273,-4.5282,-4.5302,-4.5256,-4.528,-4.5314,-4.533,-4.5362,-4.5391,-4.5409,-4.5405,-4.5358,-4.5351,-4.5368,-4.5381,-4.5392,-4.5386,-4.5131,-4.5345,-4.5343,-4.5341,-4.534,-4.5339,-4.5353,-4.5391,-4.5389,-4.542,-4.5423,-4.5434,-4.5467,-4.5452,-4.5479,-4.5502,-4.5475,-4.5517,-4.5517,-4.5537,-4.5539,-4.5571,-4.5535,-4.556,-4.5566,-4.5573,-4.5583,-4.5389,-4.5575,-4.5574,-4.5574,-4.5573,-4.5573,0,-4.5538,-4.5535,-4.5564,-4.558,-4.5605,-4.5561,-4.557,-4.5593,-4.5631,-4.5636,-4.5658,-4.5699,-4.5728,-4.5711,-4.5736,-4.5766,-4.5745,-4.5774,-4.577,-4.577,-4.5614,-4.5596,-4.579,-4.579,-4.579,-4.579,-4.579,-4.579,-4.5638,-4.57,-4.5684,-4.5749,-4.5745,-4.5786,-4.5795,-4.5806,-4.581,-4.5858,-4.5882,-4.5872,-4.5868,-4.5894,-4.5919,-4.5914,-4.5925,-4.5962,-4.5949,-4.5802,-4.5781,-4.576,-4.5743,-4.5965,-4.5965,-4.6101,-4.6103,-4.6104]},{"header":{"parameterUnit":"m.s-1","parameterCategory":1,"la1":30.2991,"la2":30.254,"lo1":-89.0895,"lo2":-89.0444,"dy":0.0017,"dx":0.0017,"nx":28,"ny":28,"refTime":"2024-12-16T03:00:00:Z","depth":0,"parameterNumber":3,"parameterNumberName":"V-component_of_WINDS"},"data":[0,0,0,0,0,0,0,0,0,0,0,0,0,0,0,0,0,0,0,0,0,0,0,0,0,0,0,0,0,0,0,0,0,0,0,0,0,0,0,0,0,0,0,0,0,0,0,0,0,0,0,0,0,0,0,0,0,0,0.6347,0.6347,0,0.634,0.634,0.634,0.6373,0.6373,0.6374,0.6375,0.6363,0.6362,0.6361,0,0,0,0,0,0,0,0,0,0,0,0,0,0.6386,0.6385,0.6347,0.6347,0.6347,0.634,0.634,0.634,0.6372,0.6374,0.6375,0.6376,0.6364,0.6362,0.6361,0,0,0,0,0,0,0,0,0,0,0,0,0,0.6373,0.6385,0.6347,0.6362,0.6364,0.634,0.634,0.634,0.6372,0.6374,0.6375,0.6376,0.6364,0.6363,0.6361,0.6321,0,0,0.6355,0.6354,0,0,0,0,0,0,0,0,0.6374,0.6372,0.636,0.6361,0.6363,0.6359,0.635,0.6334,0.6372,0.6369,0.6375,0.6377,0.636,0.6359,0.6354,0.632,0.632,0.6355,0.6354,0.6353,0.6353,0,0,0,0,0,0,0,0.6375,0.6372,0.6344,0.636,0.6362,0.6369,0.6369,0.6347,0.6356,0.6369,0.6371,0.6371,0.6361,0.6356,0.6354,0.632,0.6355,0.6354,0.6352,0.6352,0.6256,0.6255,0,0,0,0,0,0,0.6374,0.6373,0.6345,0.6344,0.6372,0.6367,0.6367,0.6359,0.6357,0.6358,0.6369,0.6372,0.6359,0.6356,0.6354,0.6309,0.6353,0.6352,0.635,0.6258,0.6256,0.6254,0,0,0,0,0,0,0.6375,0.6371,0.6345,0.6359,0.6356,0.6365,0.6355,0.6358,0.6353,0.6357,0.6359,0.6362,0.636,0.6357,0.633,0.6309,0.6351,0.6349,0.6259,0.6257,0.6255,0.6218,0,0,0,0,0,0,0.6376,0.6371,0.6356,0.6359,0.6356,0.6321,0.6354,0.6357,0.635,0.6353,0.6351,0.6352,0.636,0.6333,0.6328,0.6307,0.6348,0.6261,0.6258,0.6256,0.6221,0.6215,0.621,0,0,0,0,0,0.6377,0.6344,0.6355,0.6352,0.6337,0.632,0.6318,0.633,0.6348,0.6333,0.6337,0.6352,0.6313,0.633,0.6325,0.6303,0.6263,0.6259,0.6256,0.6224,0.6216,0.621,0,0,0,0,0,0,0.6336,0.6345,0.6357,0.6324,0.6322,0.6326,0.6307,0.6321,0.6312,0.6315,0.6329,0.6328,0.63,0.6299,0.6318,0.6267,0.6291,0.6286,0.6268,0.626,0.6255,0.6255,0.6346,0,0,0,0,0,0.6324,0.6311,0.6318,0.6289,0.6287,0.6297,0.629,0.63,0.6297,0.6295,0.6297,0.6292,0.6279,0.627,0.6258,0.6222,0.6222,0.6205,0.6199,0.6195,0.619,0.6173,0.6166,0.6244,0.6244,0.6244,0,0,0.6298,0.6301,0.6291,0.6281,0.628,0.6265,0.6296,0.6278,0.6267,0.6292,0.6268,0.6269,0.6265,0.6235,0.6221,0.6233,0.6169,0.619,0.6187,0.6185,0.6169,0.6162,0.6155,0.6241,0.6242,0.6242,0,0,0.6242,0.6243,0.622,0.6219,0.6219,0.6226,0.6221,0.6224,0.6226,0.6203,0.6222,0.6209,0.6186,0.6183,0.6179,0.6127,0.6141,0.6123,0.6091,0.6075,0.6069,0.6063,0.6046,0.6039,0.6119,0.6118,0.6118,0,0.6208,0.6188,0.6205,0.6188,0.6183,0.6209,0.6185,0.6183,0.6178,0.6174,0.6189,0.6163,0.6161,0.6131,0.6119,0.6115,0.6109,0.6122,0.6069,0.6063,0.6059,0.6042,0.6035,0.6116,0.6117,0.6117,0.6117,0,0.6148,0.6134,0.6115,0.6112,0.6106,0.6085,0.6099,0.6091,0.6103,0.6109,0.6086,0.6087,0.6076,0.607,0.608,0.6043,0.605,0.6066,0.6091,0.6049,0.6033,0.6027,0.6113,0.6114,0.6115,0.6115,0,0,0.6062,0.6073,0.6066,0.6067,0.607,0.6059,0.604,0.6033,0.6026,0.6022,0.6007,0.599,0.6006,0.6001,0.6011,0.5997,0.5958,0.6015,0.6015,0.6004,0.5918,0.5905,0.5897,0.5968,0.5967,0.5966,0.5918,0,0.6009,0.5979,0.5996,0.5963,0.5951,0.5977,0.5962,0.5962,0.5968,0.5959,0.5965,0.5953,0.5975,0.5972,0.596,0.5965,0.594,0.5969,0.5953,0.5953,0.5953,0.5889,0.5875,0.583,0.5912,0.5911,0.591,0,0.5941,0.5938,0.5905,0.5914,0.591,0.5895,0.5891,0.5882,0.5884,0.589,0.5886,0.5901,0.5884,0.591,0.5887,0.5906,0.5901,0.5903,0.5902,0.59,0.5928,0.5885,0.5815,0.5808,0.5901,0.5902,0.5902,0,0.5883,0.5871,0.585,0.585,0.5859,0.5849,0.5852,0.5855,0.5851,0.5848,0.5845,0.5839,0.5835,0.583,0.5844,0.5861,0.5819,0.5845,0.5823,0.5823,0.5811,0.5812,0.5739,0.5809,0.5809,0.5809,0.581,0,0.582,0.5799,0.5825,0.5812,0.579,0.581,0.5787,0.5793,0.5797,0.5786,0.5808,0.5797,0.5815,0.5806,0.5816,0.5797,0.5794,0.5799,0.5801,0.5796,0.5796,0.5792,0.5795,0.5808,0.5808,0.5808,0.5809,0,0.575,0.5767,0.5747,0.5759,0.5762,0.5745,0.5755,0.5744,0.5754,0.574,0.5738,0.5752,0.5743,0.5757,0.5748,0.5755,0.5728,0.5736,0.5728,0.573,0.5707,0.5709,0.5629,0.562,0.5696,0.5696,0.5695,0,0.5709,0.5694,0.5706,0.5702,0.5705,0.5696,0.5693,0.5714,0.5709,0.5713,0.5701,0.5695,0.569,0.5674,0.5684,0.5678,0.5685,0.5658,0.5684,0.5681,0.5685,0.5686,0.5685,0.5652,0.5651,0.565,0.565,0,0.5634,0.5644,0.5639,0.5639,0.5635,0.5635,0.5636,0.563,0.5652,0.5646,0.5639,0.5636,0.563,0.5623,0.562,0.5623,0.564,0.5642,0.5637,0.563,0.5627,0.5629,0.5713,0.5643,0.5644,0.5644,0.5645,0.5645,0.5577,0.5566,0.5574,0.5569,0.5573,0.5575,0.5566,0.5576,0.5571,0.5569,0.5581,0.5571,0.5576,0.5575,0.5577,0.5569,0.5581,0.5573,0.5571,0.5568,0.5565,0.5629,0.5569,0.5569,0.5569,0.5569,0.5569,0,0.5503,0.5511,0.5506,0.5509,0.5506,0.5526,0.5529,0.5524,0.5516,0.552,0.5517,0.5509,0.5504,0.5515,0.5511,0.5503,0.5511,0.5502,0.5502,0.5503,0.5554,0.5559,0.5496,0.5496,0.5496,0.5496,0.5496,0.5496,0.5464,0.5447,0.5459,0.5445,0.5453,0.5445,0.5445,0.5447,0.5451,0.5443,0.544,0.5448,0.5455,0.5453,0.5449,0.5453,0.545,0.5438,0.5444,0.5491,0.5499,0.5505,0.551,0.5437,0.5437,0.5393,0.5393,0.5392]}]]